Tracking 19562 objects as of 22-Mar-2019
HD Live streaming from Space Station
objects crossing your sky now

ASTRA 1H

Track ASTRA 1H now!
ASTRA 1H is classified as:


NORAD ID: 25785
Int'l Code: 1999-033A
Perigee: 35,780.1 km
Apogee: 35,806.4 km
Inclination: 5.1 °
Period: 1,436.1 minutes
Semi major axis: 42164 km
RCS: 0.8136 m2 (medium)
Launch date: June 18, 1999
Source: SOCIETE EUROPEENNE DES SATELLITES (SES)
Launch site: TYURATAM MISSILE AND SPACE COMPLEX (TTMTR)

Direct-to-home tv; multimedia; broadcasting; 32 Ku-band for first five years, 28 after; Europe
aabbcc
Your satellite tracking list
Your tracking list is empty




NASA's NSSDC Master Catalog

Two Line Element Set (TLE):
1 25785U 99033A   19080.85644441 -.00000298 +00000-0 +00000-0 0  9995
2 25785 005.0596 066.2684 0003125 292.0757 061.9670 01.00273633024896
Source of the keplerian elements: AFSPC